Regional Weather Roundup
Issued by NWS Glasgow, MT

Home | Current Version | Previous Version | Text Only | Print | Product List | Glossary On
Versions: 1 2 3 4 5 6 7 8 9 10 11 12 13 14 15 16 17 18 19 20 21 22 23 24 25 26 27 28 29 30 31 32 33 34 35 36 37 38 39 40 41 42 43 44 45 46 47 48 49 50
000
ASUS45 KGGW 201615
RWRGGW
HOURLY REGIONAL WEATHER ROUNDUP FOR NORTHEAST MONTANA
NATIONAL WEATHER SERVICE GLASGOW MONTANA
1000 AM MDT FRI APR 20 2018

NOTE: "FAIR" INDICATES FEW OR NO CLOUDS BELOW 12,000 FEET WITH NO
SIGNIFICANT WEATHER AND/OR OBSTRUCTIONS TO VISISBILITY.

NORTHEAST MONTANA


CITY           SKY/WX    TMP DP  RH WIND       PRES   REMARKS
GLASGOW        SUNNY     49  33  54 SE10      30.15S
PLENTYWOOD       N/A     45  32  60 SE5G13      N/A
WOLF POINT     SUNNY     50  34  54 E8        30.17F
JORDAN           N/A     48  34  58 E5        30.13F
WINNETT          N/A     51  33  50 E1          N/A
SIDNEY         SUNNY     48  32  53 E6        30.19F
GLENDIVE       SUNNY     44  31  60 E9        30.18S
MALTA            N/A     55  37  50 SE3G12      N/A

FORT PECK REPORTS


CITY           SKY/WX    TMP DP  RH WIND       PRES   REMARKS
FORT PECK        N/A     48  34  58 E8          N/A
THE PINES        N/A     48  32  53 NE3         N/A

SOUTHEAST MONTANA


CITY           SKY/WX    TMP DP  RH WIND       PRES   REMARKS
BILLINGS       MOSUNNY   51  36  56 NW14      30.10F
MILES CITY     SUNNY     50  36  58 NE8       30.12S
BAKER          PTSUNNY   47  31  53 SE17G28   30.15F
LIVINGSTON     SUNNY     49  31  49 CALM      30.13F

CENTRAL MONTANA


CITY           SKY/WX    TMP DP  RH WIND       PRES   REMARKS
HAVRE          SUNNY     48  37  65 W8        30.12F
LEWISTOWN      SUNNY     51  30  44 CALM      30.13F
GREAT FALLS    SUNNY     50  32  50 SW9       30.13F
CUT BANK       MOSUNNY   49  26  41 W3        30.11S
HELENA         SUNNY     47  31  53 CALM      30.15F
BUTTE          SUNNY     42  24  49 CALM      30.18F
BOZEMAN        SUNNY     44  30  57 CALM      30.16S

WESTERN MONTANA


CITY           SKY/WX    TMP DP  RH WIND       PRES   REMARKS
MISSOULA       SUNNY     44  29  55 CALM      30.22F
KALISPELL      NOT AVBL

NORTH DAKOTA


CITY           SKY/WX    TMP DP  RH WIND       PRES   REMARKS
WILLISTON      SUNNY     49  31  49 SE8       30.22F
DICKINSON      MOSUNNY   47  31  53 SE12      30.19F
MINOT          SUNNY     49  28  44 S15       30.29F
BISMARCK       PTSUNNY   49  31  49 SE13      30.30F

SOUTHERN SASKATCHEWAN


CITY           SKY/WX    TMP DP  RH WIND       PRES   REMARKS
REGINA         MOSUNNY   41  36  81 SE16      30.21F
MOOSE JAW      MOSUNNY   46  39  76 SE8       30.18F
ESTEVAN        PTSUNNY   48  32  53 SE13      30.25F
SWIFT CURRENT  PTSUNNY   45  36  70 S20G26    30.09F




USA.gov is the U.S. government's official web portal to all federal, state and local government web resources and services.